Date String (YYYY-MM-DD hh:mm:ss) UTC,Instrument flags,Ambient pressure (hPa),Sample flow (lpm),Bypass flow (lpm),Sample temperature (°C),Ambient temperature (°C),ASC tube jacket temperature (°C),LED temperature (°C),Box temperature (°C),Sample RH (%),Span deviation,Mass concentration (μg/m³),Mass concentration (μg/m³),Mass concentration (μg/m³)
DateTimeUTC,F1_M11,P_M11,Q1_M11,Q2_M11,T1_M11,T2_M11,T3_M11,T4_M11,T5_M11,U1_M11,ZSPAN_M11,X0_M11,X2_M11,X1_M11
2022-10-05 14:00:00,,0833.6,5.00,0.00,28.2,26.7,00.0,36.9,30.0,21.3,0000.0,0008.55,0005.62,0005.33
2022-10-05 14:01:00,,0833.6,5.00,0.00,28.2,26.7,00.0,36.9,30.1,21.1,0000.0,0008.46,0005.58,0005.31
2022-10-05 14:02:00,,0833.6,5.00,0.00,28.2,26.7,00.0,36.9,30.1,21.0,0000.0,0008.44,0005.57,0005.31
2022-10-05 14:03:00,,0833.6,4.99,0.00,28.2,26.7,00.0,36.9,30.1,21.3,0000.0,0008.76,0005.57,0005.31
2022-10-05 14:04:00,,0833.6,5.01,0.00,28.2,26.7,00.0,36.9,30.1,21.8,0000.0,0009.08,0005.53,0005.31
2022-10-05 14:05:00,,0833.7,4.99,0.00,28.2,26.7,00.0,36.9,30.1,21.9,0000.0,0008.92,0005.53,0005.31
2022-10-05 14:06:00,,0833.6,5.02,0.00,28.2,26.7,00.0,36.9,30.1,21.4,0000.0,0008.92,0005.54,0005.34
2022-10-05 14:07:00,,0833.6,4.98,0.00,28.2,26.7,00.0,36.9,30.1,21.2,0000.0,0009.05,0005.59,0005.37
2022-10-05 14:08:00,,0833.6,5.02,0.00,28.2,26.7,00.0,36.9,30.1,21.3,0000.0,0009.15,0005.65,0005.40
2022-10-05 14:09:00,,0833.6,4.99,0.00,28.2,26.7,00.0,36.9,30.1,21.8,0000.0,0009.16,0005.68,0005.43
2022-10-05 14:10:00,,0833.6,5.01,0.00,28.2,26.8,00.0,36.9,30.1,22.4,0000.0,0009.21,0005.72,0005.46
2022-10-05 14:11:00,,0833.6,4.99,0.00,28.2,26.8,00.0,36.9,30.1,22.7,0000.0,0009.26,0005.76,0005.49
2022-10-05 14:12:00,,0833.7,5.01,0.00,28.2,26.8,00.0,36.9,30.1,22.6,0000.0,0009.28,0005.76,0005.50
2022-10-05 14:13:00,,0833.7,4.99,0.00,28.2,26.8,00.0,36.9,30.1,22.4,0000.0,0009.40,0005.77,0005.51
2022-10-05 14:14:00,,0833.7,4.99,0.00,28.2,26.8,00.0,36.9,30.1,22.5,0000.0,0009.03,0005.78,0005.52
2022-10-05 14:15:00,,0833.7,5.01,0.00,28.2,26.8,00.0,36.9,30.1,22.9,0000.0,0008.54,0005.79,0005.53
2022-10-05 14:16:00,,0833.7,4.99,0.00,28.2,26.8,00.0,37.0,30.1,23.2,0000.0,0008.50,0005.78,0005.54
2022-10-05 14:17:00,,0833.7,5.01,0.00,28.3,26.9,00.0,37.0,30.1,23.1,0000.0,0008.58,0005.79,0005.54
2022-10-05 14:18:00,,0833.7,4.99,0.00,28.3,26.9,00.0,37.0,30.1,22.9,0000.0,0008.52,0005.79,0005.55
2022-10-05 14:19:00,,0833.7,5.02,0.00,28.3,26.9,00.0,37.0,30.1,23.4,0000.0,0008.50,0005.77,0005.54
2022-10-05 14:20:00,,0833.7,4.99,0.00,28.3,26.9,00.0,37.0,30.2,22.9,0000.0,0008.52,0005.74,0005.51
2022-10-05 14:21:00,,0833.8,5.01,0.00,28.3,26.9,00.0,37.0,30.2,23.0,0000.0,0008.58,0005.71,0005.48
2022-10-05 14:22:00,,0833.7,4.99,0.00,28.3,26.9,00.0,37.0,30.2,23.3,0000.0,0008.67,0005.70,0005.46
2022-10-05 14:23:00,,0833.8,5.01,0.00,28.3,26.9,00.0,37.0,30.2,23.2,0000.0,0008.64,0005.69,0005.45
2022-10-05 14:24:00,,0833.8,5.00,0.00,28.3,26.9,00.0,37.0,30.2,23.1,0000.0,0008.85,0005.69,0005.43
2022-10-05 14:25:00,,0833.8,5.00,0.00,28.3,27.0,00.0,37.0,30.2,22.8,0000.0,0009.06,0005.72,0005.41
2022-10-05 14:26:00,,0833.8,4.99,0.00,28.3,27.0,00.0,37.0,30.2,22.9,0000.0,0009.10,0005.73,0005.41
2022-10-05 14:27:00,,0833.8,5.01,0.00,28.3,27.0,00.0,37.0,30.2,22.7,0000.0,0009.11,0005.71,0005.38
2022-10-05 14:28:00,,0833.9,4.99,0.00,28.3,27.0,00.0,37.0,30.2,22.7,0000.0,0009.06,0005.68,0005.35
2022-10-05 14:29:00,,0833.8,5.01,0.00,28.3,27.0,00.0,37.0,30.2,23.0,0000.0,0008.97,0005.62,0005.30
2022-10-05 14:30:00,,0833.9,4.99,0.00,28.4,27.0,00.0,37.0,30.2,22.7,0000.0,0008.95,0005.58,0005.27
2022-10-05 14:31:00,,0833.9,5.00,0.00,28.4,27.0,00.0,37.0,30.2,22.6,0000.0,0008.89,0005.55,0005.25
2022-10-05 14:32:00,,0833.9,5.00,0.00,28.4,27.0,00.0,37.0,30.2,22.3,0000.0,0008.73,0005.51,0005.22
2022-10-05 14:33:00,,0833.9,4.99,0.00,28.4,27.1,00.0,37.1,30.3,22.4,0000.0,0008.57,0005.46,0005.21
2022-10-05 14:34:00,,0833.9,5.01,0.00,28.4,27.1,00.0,37.1,30.3,22.3,0000.0,0008.52,0005.43,0005.17
2022-10-05 14:35:00,,0834.0,4.99,0.00,28.4,27.1,00.0,37.1,30.3,22.2,0000.0,0008.21,0005.39,0005.15
2022-10-05 14:36:00,,0834.0,5.01,0.00,28.4,27.1,00.0,37.1,30.3,22.3,0000.0,0008.01,0005.34,0005.13
2022-10-05 14:37:00,,0834.0,4.99,0.00,28.4,27.1,00.0,37.1,30.3,21.9,0000.0,0007.89,0005.28,0005.10
2022-10-05 14:38:00,,0834.0,5.02,0.00,28.4,27.1,00.0,37.1,30.3,22.2,0000.0,0007.86,0005.26,0005.08
2022-10-05 14:39:00,,0834.0,4.99,0.00,28.4,27.1,00.0,37.1,30.3,22.9,0000.0,0007.83,0005.25,0005.07
2022-10-05 14:40:00,,0834.0,5.01,0.00,28.4,27.2,00.0,37.1,30.3,22.9,0000.0,0008.00,0005.27,0005.07
2022-10-05 14:41:00,,0834.0,4.99,0.00,28.5,27.2,00.0,37.1,30.4,22.8,0000.0,0008.01,0005.28,0005.07
2022-10-05 14:42:00,,0834.0,4.99,0.00,28.5,27.2,00.0,37.1,30.4,22.6,0000.0,0008.05,0005.31,0005.09
2022-10-05 14:43:00,,0834.0,5.01,0.00,28.5,27.2,00.0,37.1,30.4,22.5,0000.0,0008.06,0005.32,0005.10
2022-10-05 14:44:00,,0834.0,4.99,0.00,28.5,27.2,00.0,37.2,30.4,22.1,0000.0,0008.08,0005.34,0005.11
2022-10-05 14:45:00,,0834.0,5.01,0.00,28.5,27.2,00.0,37.2,30.4,22.5,0000.0,0008.06,0005.36,0005.14
2022-10-05 14:46:00,,0834.0,5.00,0.00,28.5,27.3,00.0,37.2,30.4,22.3,0000.0,0008.06,0005.37,0005.16
2022-10-05 14:47:00,,0834.0,5.00,0.00,28.5,27.3,00.0,37.2,30.4,22.6,0000.0,0008.34,0005.37,0005.18
2022-10-05 14:48:00,,0834.0,5.00,0.00,28.5,27.3,00.0,37.2,30.4,22.1,0000.0,0008.76,0005.40,0005.21
2022-10-05 14:49:00,,0834.0,5.00,0.00,28.5,27.3,00.0,37.2,30.5,22.3,0000.0,0008.78,0005.43,0005.24
2022-10-05 14:50:00,,0834.0,5.01,0.00,28.6,27.3,00.0,37.2,30.5,22.6,0000.0,0008.72,0005.44,0005.27
2022-10-05 14:51:00,,0834.0,4.99,0.00,28.6,27.3,00.0,37.2,30.5,22.9,0000.0,0008.69,0005.44,0005.29
2022-10-05 14:52:00,,0834.0,5.01,0.00,28.6,27.3,00.0,37.2,30.5,23.0,0000.0,0008.80,0005.44,0005.31
2022-10-05 14:53:00,,0834.0,4.99,0.00,28.6,27.3,00.0,37.2,30.5,22.7,0000.0,0009.09,0005.47,0005.33
2022-10-05 14:54:00,,0834.0,5.01,0.00,28.6,27.3,00.0,37.3,30.5,22.4,0000.0,0009.17,0005.52,0005.36
2022-10-05 14:55:00,,0834.0,4.99,0.00,28.6,27.4,00.0,37.3,30.5,22.5,0000.0,0009.28,0005.55,0005.37
2022-10-05 14:56:00,,0834.0,5.01,0.00,28.6,27.4,00.0,37.3,30.5,22.2,0000.0,0009.40,0005.58,0005.38
2022-10-05 14:57:00,,0834.0,4.99,0.00,28.6,27.4,00.0,37.3,30.5,22.5,0000.0,0009.45,0005.59,0005.38
2022-10-05 14:58:00,,0834.0,5.00,0.00,28.6,27.4,00.0,37.3,30.5,22.8,0000.0,0009.39,0005.62,0005.40
2022-10-05 14:59:00,,0834.0,5.00,0.00,28.7,27.4,00.0,37.3,30.6,21.7,0000.0,0008.83,0005.63,0005.38
